Regional Weather Roundup
Issued by NWS Upton, NY

Current Version | Previous Version | Text Only | Print | Product List | Glossary On
Versions: 1 2 3 4 5 6 7 8 9 10 11 12 13 14 15 16 17 18 19 20 21 22 23 24 25 26 27 28 29 30 31 32 33 34 35 36 37 38 39 40 41 42 43 44 45 46 47 48 49
000
ASUS41 KOKX 041404
RWROKX

REGIONAL WEATHER ROUNDUP
NATIONAL WEATHER SERVICE NEW YORK NY
1000 AM EDT FRI SEP 04 2015

NOTE: "FAIR" INDICATES FEW OR NO CLOUDS BELOW 12,000 FEET WITH NO
SIGNIFICANT WEATHER AND/OR OBSTRUCTIONS TO VISIBILITY.

NYZ071-072-176-178-NJZ106-104-041500-
NEW YORK CITY METRO AREA


CITY           SKY/WX    TMP DP  RH WIND       PRES   REMARKS
CENTRAL PARK   MOSUNNY   80  67  64 E8        30.08R
LAGUARDIA APRT PTSUNNY   78  67  68 NE17      30.05R
KENNEDY INTL   MOSUNNY   83  67  58 E10G17    30.05R
NEWARK/LIBERTY MOSUNNY   82  68  62 NE12      30.04R
BRNX BOT. GARD   N/A     77  66  69 NW8       30.07S
TETERBORO      MOSUNNY   81  65  58 NE10      30.05R
$$

NYZ177-179-078>081-041500-
LONG ISLAND NEW YORK

CITY           SKY/WX    TMP DP  RH WIND       PRES   REMARKS
FARMINGDALE    PTSUNNY   79  67  66 E13       30.06R
ISLIP          CLOUDY    78  67  68 E8        30.05R
SHIRLEY        CLOUDY    76  67  73 VRB7      30.08R
WESTHAMPTON    CLOUDY    76  68  76 E12       30.08R
MONTAUK POINT    N/A     73  66  78 NE10      30.09R
$$

NYZ052-065-067-041500-
HUDSON VALLEY

CITY           SKY/WX    TMP DP  RH WIND       PRES   REMARKS
WHITE PLAINS   PTSUNNY   76  68  76 E6        30.08R
NEWBURGH       MOSUNNY   73  64  73 E9        30.11R
MONTGOMERY     MOSUNNY   77  63  61 NE13      30.10R
POUGHKEEPSIE   PTSUNNY   77  62  59 N7        30.09R
ALBANY         MOSUNNY   71  56  58 N5        30.13R
$$

NJZ001-105-106-008-010-013-015-019>022-104-041500-
NEW JERSEY

CITY           SKY/WX    TMP DP  RH WIND       PRES   REMARKS
NEWARK/LIBERTY MOSUNNY   82  68  62 NE12      30.04R
TETERBORO      MOSUNNY   81  65  58 NE10      30.05R
CALDWELL       PTSUNNY   80  66  62 E14       30.06R
MORRISTOWN     MOSUNNY   82  70  65 E10G17    30.06R
SOMERVILLE     SUNNY     81  67  62 NE9       30.03R
SUSSEX         MOSUNNY   74  64  71 NE10      30.09R
ANDOVER          N/A     77  67  71 VRB5      30.08R
TRENTON        SUNNY     81  68  64 NE7       30.03R
MILLVILLE      SUNNY     83  66  56 NE8       30.01R
ATLANTIC CITY  SUNNY     83  70  64 E6        30.01R HAZE
WRIGHTSTOWN    SUNNY     81  72  75 E9        30.00R
TOMS RIVER     SUNNY     81  70  69 NE8G16    30.03R
BELMAR         CLOUDY    79  68  69 E14       30.04R
$$

PAZ047>061-062-071-041500-
EASTERN PENNSYLVANIA

CITY           SKY/WX    TMP DP  RH WIND       PRES   REMARKS
PHILADELPHIA   PTSUNNY   84  68  58 E9        30.02R
ALLENTOWN      SUNNY     79  67  66 NE8       30.06R
SCRANTON       SUNNY     78  68  71 NE3       30.09R
$$

CTZ002-004>006-009-010-012-RIZ004-006-007-MAZ004-011-015-041500-
SOUTHERN NEW ENGLAND
 IN CT

CITY           SKY/WX    TMP DP  RH WIND       PRES   REMARKS
BRADLEY INTL   MOSUNNY   74  56  53 N15       30.12R
HARTFORD       MOSUNNY   74  60  61 NE13      30.11R
DANBURY        PTSUNNY   76  65  68 E13       30.11R
WTRBRY/OXFORD  PTSUNNY   72  63  73 E9        30.13R
BRIDGEPORT     CLOUDY    79  68  69 NE14      30.08R
MERIDEN        CLOUDY    76  66  71 NE6       30.10R
NEW HAVEN      PTSUNNY   78  67  68 NE12      30.09R
CHESTER        NOT AVBL
GROTON         PTSUNNY   76  65  68 NE15      30.08R
WILLIMANTIC    MOSUNNY   74  58  57 NE10      30.12R

 IN RI

CITY           SKY/WX    TMP DP  RH WIND       PRES   REMARKS
PROVIDENCE     PTSUNNY   70  59  68 NE13G22   30.12R
BLOCK ISLAND   CLOUDY    70  66  88 NE12G18   30.09R
WESTERLY       SUNNY     73  63  70 NE9       30.09R

 IN MA

CITY           SKY/WX    TMP DP  RH WIND       PRES   REMARKS
BOSTON         CLOUDY    67  56  67 NE12      30.16R
WORCESTER      CLOUDY    67  52  58 NE13G20   30.16R
WESTFIELD      PTSUNNY   73  55  53 N8        30.13R
PROVINCETOWN     N/A     72  63  73 NE14      30.12R
NANTUCKET      SUNNY     73  68  84 NE14G20   30.04S
$$

ANZ330-335-338-340-345-350-353-355-041500-
COASTAL MARINE OBSERVATIONS


STATION/POSITION TIME  SKY/WX   TEMP    WIND        PRES    VSBY  WAVE
                                AIR SEA DIR/SP/G                  HT/PER
                 (UTC)          (F)     (DEG/KT/KT) (MB)    (MI)  (FT/S)
NY HARB ENTRANCE 1250            76 77   50/ 16/ 19 1015.8          2/ 3
4S FIRE IS       NOT AVBL
20S FIRE ISLAND  1250            74 76   60/ 16/ 17 1015.8          1/10
GREAT SOUTH BAY  1315            75 79   90/ 16/ 17   N/A
23SW MTP         1350            72 74   60/ 19/ 23 1017.2          3/ 4
HUDSON CANYON    NOT AVBL
KINGS POINT      1300            76 75   20/  2/  8 1016.3
EXECUTION ROCKS  1300            76      60/ 14/ 19   N/A
CENTRAL LI SOUND NOT AVBL
EASTERN LI SOUND 1300            73 70   50/ 16/ 21   N/A
ROBBINS REEF     1300            76      40/ 13/ 15 1015.6
$$


>>>>>>>>>>>>>>>>>>>>>>>>>>>> KEY <<<<<<<<<<<<<<<<<<<<<<<<<<<
>                                                          <
>     SKY/WX - SKY CONDITION/PRESENT WEATHER               <
>     TMP    - TEMPERATURE IN FAHRENHEIT                   <
>     DP     - DEWPOINT IN FAHRENHEIT                      <
>     RH     - RELATIVE HUMIDITY IN PERCENT                <
>     WIND   - DIRECTION AND SPEED IN MPH                  <
>     PRES   - MEAN SEA LEVEL PRESSURE IN INCHES OF HG     <
>     WCI    - WIND CHILL INDEX                            <
>     VSB    - VISIBILITY IN MILES                         <
>     HX     - HEAT INDEX                                  <
>     TC     - TEMPERATURE IN CELSIUS                      <
>     VRB    - VARIABLE WIND DIRECTION                     <
>                                                          <
>>>>>>>>>>>>>>>>>>>>>>>>>>>> KEY <<<<<<<<<<<<<<<<<<<<<<<<<<<





USA.gov is the U.S. government's official web portal to all federal, state and local government web resources and services.